DAL823 VTBS-FMMI

Flight info

Callsign DAL823
Flight time N/A
Altitude 30000
Route UKERA1G UKERA G458 MENEX Y8 PUT P627 KADAP R348 RUPIG UR348 IXARI
Aircraft B773/H-VGDW/C

Departure

Time N/A
Airport Suvarnabhumi Airport (VTBS)

Arrival

Time 2026-05-03 20:57
Airport Ivato International Airport (FMMI)
Time Latitude Longitude Altitude Speed Heading
2026-05-03 20:15 -17.22101 51.49772 30069 ft 490 kts 245°
2026-05-03 20:15 -17.24899 51.43365 30084 ft 485 kts 245°
2026-05-03 20:16 -17.27724 51.36890 30090 ft 494 kts 245°
2026-05-03 20:16 -17.30601 51.30289 30088 ft 502 kts 245°
2026-05-03 20:17 -17.33491 51.23649 30082 ft 500 kts 245°
2026-05-03 20:17 -17.36363 51.17046 30083 ft 500 kts 245°
2026-05-03 20:18 -17.39241 51.10421 30089 ft 496 kts 245°
2026-05-03 20:18 -17.42088 51.03859 30087 ft 494 kts 245°
2026-05-03 20:19 -17.44918 50.97330 30084 ft 491 kts 245°
2026-05-03 20:19 -17.47720 50.90861 30083 ft 485 kts 245°
2026-05-03 20:20 -17.50513 50.84406 30099 ft 489 kts 245°
2026-05-03 20:20 -17.52924 50.78823 30087 ft 485 kts 245°
2026-05-03 20:21 -17.55240 50.73458 30102 ft 491 kts 245°
2026-05-03 20:21 -17.58072 50.66891 30104 ft 497 kts 245°
2026-05-03 20:22 -17.60931 50.60253 30105 ft 502 kts 245°
2026-05-03 20:22 -17.64244 50.52553 30087 ft 494 kts 245°
2026-05-03 20:23 -17.66593 50.47087 30102 ft 489 kts 245°
2026-05-03 20:23 -17.69378 50.40600 30093 ft 486 kts 245°
2026-05-03 20:24 -17.72161 50.34113 30105 ft 489 kts 245°
2026-05-03 20:24 -17.74937 50.27633 30100 ft 486 kts 245°
2026-05-03 20:25 -17.77712 50.21148 30105 ft 489 kts 245°
2026-05-03 20:25 -17.80510 50.14603 30112 ft 497 kts 245°
2026-05-03 20:26 -17.83351 50.07948 30116 ft 502 kts 245°
2026-05-03 20:26 -17.86187 50.01299 30102 ft 496 kts 245°
2026-05-03 20:27 -17.88983 49.94736 30103 ft 490 kts 245°
2026-05-03 20:27 -17.91763 49.88207 30103 ft 486 kts 245°
2026-05-03 20:28 -17.94534 49.81690 30121 ft 493 kts 245°
2026-05-03 20:28 -17.97325 49.75119 30111 ft 497 kts 246°
2026-05-03 20:29 -18.00135 49.68493 30109 ft 497 kts 246°
2026-05-03 20:29 -18.02947 49.61856 30112 ft 497 kts 246°
2026-05-03 20:30 -18.05755 49.55220 30107 ft 496 kts 246°
2026-05-03 20:30 -18.08555 49.48596 30101 ft 496 kts 246°
2026-05-03 20:31 -18.11348 49.41982 30104 ft 495 kts 246°
2026-05-03 20:31 -18.14058 49.35324 30104 ft 495 kts 248°
2026-05-03 20:32 -18.16505 49.28559 30104 ft 495 kts 249°
2026-05-03 20:32 -18.18931 49.21775 30120 ft 495 kts 249°
2026-05-03 20:33 -18.21388 49.15025 30132 ft 495 kts 249°
2026-05-03 20:33 -18.23868 49.08264 30157 ft 495 kts 248°
2026-05-03 20:34 -18.26344 49.01510 30171 ft 495 kts 249°
2026-05-03 20:34 -18.28762 48.94895 30144 ft 472 kts 249°
2026-05-03 20:34 -18.29932 48.91689 29920 ft 467 kts 249°
2026-05-03 20:35 -18.31091 48.88515 29568 ft 464 kts 249°
2026-05-03 20:35 -18.32242 48.85358 29203 ft 461 kts 249°
2026-05-03 20:35 -18.33390 48.82211 28817 ft 459 kts 249°
2026-05-03 20:35 -18.34530 48.79079 28431 ft 456 kts 249°
2026-05-03 20:36 -18.35658 48.75981 28057 ft 454 kts 249°
2026-05-03 20:36 -18.36787 48.72881 27685 ft 452 kts 249°
2026-05-03 20:36 -18.37907 48.69803 27291 ft 450 kts 249°
2026-05-03 20:36 -18.39028 48.66718 26903 ft 449 kts 249°
2026-05-03 20:37 -18.40136 48.63673 26536 ft 447 kts 249°
2026-05-03 20:37 -18.41251 48.60603 26159 ft 446 kts 248°
2026-05-03 20:37 -18.42357 48.57556 25789 ft 444 kts 248°
2026-05-03 20:37 -18.43444 48.54562 25424 ft 443 kts 248°
2026-05-03 20:38 -18.44541 48.51536 25068 ft 442 kts 249°
2026-05-03 20:38 -18.45646 48.48488 24708 ft 440 kts 249°
2026-05-03 20:38 -18.46735 48.45482 24358 ft 439 kts 249°
2026-05-03 20:38 -18.47822 48.42478 24010 ft 438 kts 249°
2026-05-03 20:39 -18.48902 48.39494 23635 ft 436 kts 249°
2026-05-03 20:39 -18.49979 48.36513 23227 ft 435 kts 249°
2026-05-03 20:39 -18.51054 48.33540 22819 ft 433 kts 249°
2026-05-03 20:39 -18.52124 48.30577 22421 ft 431 kts 248°
2026-05-03 20:40 -18.53174 48.27667 22030 ft 429 kts 248°
2026-05-03 20:40 -18.54231 48.24736 21644 ft 427 kts 248°
2026-05-03 20:40 -18.55290 48.21800 21251 ft 424 kts 248°
2026-05-03 20:40 -18.56339 48.18889 20884 ft 422 kts 248°
2026-05-03 20:41 -18.57376 48.16011 20495 ft 419 kts 248°
2026-05-03 20:41 -18.58408 48.13145 20113 ft 417 kts 248°
2026-05-03 20:41 -18.59422 48.10327 19758 ft 414 kts 248°
2026-05-03 20:41 -18.60444 48.07483 19367 ft 403 kts 248°
2026-05-03 20:42 -18.61417 48.04773 18990 ft 389 kts 248°
2026-05-03 20:42 -18.62347 48.02182 18613 ft 376 kts 248°
2026-05-03 20:42 -18.63258 47.99642 18181 ft 365 kts 248°
2026-05-03 20:42 -18.64142 47.97178 17784 ft 356 kts 248°
2026-05-03 20:43 -18.65011 47.94757 17384 ft 353 kts 248°
2026-05-03 20:43 -18.65884 47.92325 17096 ft 356 kts 248°
2026-05-03 20:43 -18.66762 47.89880 16782 ft 358 kts 248°
2026-05-03 20:43 -18.67643 47.87424 16465 ft 357 kts 248°
2026-05-03 20:44 -18.68522 47.84970 16175 ft 357 kts 248°
2026-05-03 20:44 -18.69396 47.82526 15873 ft 356 kts 248°
2026-05-03 20:44 -18.70268 47.80088 15571 ft 355 kts 248°
2026-05-03 20:44 -18.71135 47.77665 15285 ft 353 kts 248°
2026-05-03 20:45 -18.71999 47.75244 14974 ft 349 kts 248°
2026-05-03 20:45 -18.72848 47.72868 14674 ft 345 kts 248°
2026-05-03 20:45 -18.73691 47.70505 14416 ft 340 kts 248°
2026-05-03 20:45 -18.74515 47.68197 14181 ft 335 kts 248°
2026-05-03 20:46 -18.75330 47.65910 13928 ft 329 kts 248°
2026-05-03 20:46 -18.76127 47.63677 13669 ft 323 kts 248°
2026-05-03 20:46 -18.76912 47.61475 13421 ft 318 kts 248°
2026-05-03 20:46 -18.77680 47.59318 13223 ft 311 kts 248°
2026-05-03 20:47 -18.78436 47.57196 13091 ft 306 kts 248°
2026-05-03 20:47 -18.79184 47.55096 13049 ft 306 kts 248°
2026-05-03 20:47 -18.79832 47.52951 12992 ft 310 kts 261°
2026-05-03 20:47 -18.79750 47.50675 13005 ft 315 kts 284°
2026-05-03 20:48 -18.78928 47.48516 13007 ft 319 kts 294°
2026-05-03 20:48 -18.77955 47.46408 12982 ft 320 kts 295°
2026-05-03 20:48 -18.76968 47.44299 12708 ft 320 kts 295°
2026-05-03 20:48 -18.75989 47.42194 12378 ft 318 kts 295°
2026-05-03 20:49 -18.75039 47.40127 12034 ft 312 kts 295°
2026-05-03 20:49 -18.74106 47.38083 11682 ft 304 kts 294°
2026-05-03 20:49 -18.73210 47.36110 11314 ft 295 kts 294°
2026-05-03 20:49 -18.72336 47.34181 10973 ft 287 kts 294°
2026-05-03 20:50 -18.71486 47.32306 10640 ft 280 kts 294°
2026-05-03 20:50 -18.70656 47.30474 10287 ft 272 kts 294°
2026-05-03 20:50 -18.69858 47.28714 10062 ft 259 kts 294°
2026-05-03 20:50 -18.69289 47.26909 9788 ft 259 kts 272°
2026-05-03 20:51 -18.69595 47.25074 9430 ft 253 kts 241°
2026-05-03 20:51 -18.70703 47.23680 9074 ft 248 kts 213°
2026-05-03 20:51 -18.72239 47.22940 8667 ft 243 kts 190°
2026-05-03 20:51 -18.73880 47.23030 8241 ft 236 kts 159°
2026-05-03 20:52 -18.75170 47.24028 7823 ft 230 kts 127°
2026-05-03 20:52 -18.75876 47.25510 7433 ft 222 kts 112°
2026-05-03 20:52 -18.76357 47.27039 7086 ft 216 kts 108°
2026-05-03 20:52 -18.76745 47.28514 6976 ft 198 kts 105°
2026-05-03 20:53 -18.77004 47.29863 6975 ft 186 kts 102°
2026-05-03 20:53 -18.77218 47.31219 6993 ft 187 kts 101°
2026-05-03 20:53 -18.77421 47.32575 6783 ft 186 kts 101°
2026-05-03 20:53 -18.77617 47.33893 6607 ft 182 kts 101°
2026-05-03 20:54 -18.77814 47.35222 6345 ft 181 kts 101°
2026-05-03 20:54 -18.78201 47.37829 5881 ft 181 kts 100°
2026-05-03 20:54 -18.78395 47.39138 5650 ft 180 kts 100°
2026-05-03 20:55 -18.78589 47.40446 5402 ft 179 kts 100°
2026-05-03 20:55 -18.78781 47.41731 5173 ft 178 kts 99°
2026-05-03 20:55 -18.78969 47.43011 4895 ft 177 kts 99°
2026-05-03 20:55 -18.79148 47.44307 4613 ft 178 kts 99°
2026-05-03 20:56 -18.79345 47.45572 4437 ft 173 kts 100°
2026-05-03 20:56 -18.79530 47.46806 4207 ft 163 kts 100°
2026-05-03 20:56 -18.79689 47.47859 4173 ft 110 kts 99°
2026-05-03 20:56 -18.79774 47.48408 4158 ft 65 kts 98°
2026-05-03 20:57 -18.79836 47.48837 4145 ft 43 kts 98°
2026-05-03 20:57 -18.79875 47.49105 4141 ft 27 kts 99°
2026-05-03 20:57 -18.79901 47.49234 4144 ft 12 kts 117°
2026-05-03 20:57 -18.79924 47.49281 4141 ft 4 kts 80°
2026-05-03 20:58 -18.79915 47.49283 4144 ft 1 kts
2026-05-03 20:58 -18.79896 47.49231 4139 ft 18 kts 280°
2026-05-03 20:58 -18.79868 47.49045 4141 ft 30 kts 279°
2026-05-03 20:58 -18.79836 47.48829 4144 ft 30 kts 279°
2026-05-03 20:59 -18.79803 47.48615 4149 ft 30 kts 279°
2026-05-03 20:59 -18.79770 47.48399 4158 ft 30 kts 279°
2026-05-03 20:59 -18.79742 47.48211 4162 ft 15 kts 278°
2026-05-03 20:59 -18.79785 47.48122 4165 ft 15 kts 202°
2026-05-03 21:00 -18.79847 47.48104 4165 ft 8 kts 196°
2026-05-03 21:00 -18.79863 47.48096 4165 ft 8 kts 209°
2026-05-03 21:00 -18.79891 47.48034 4166 ft 0 kts 275°
2026-05-03 21:01 -18.79885 47.47991 4167 ft 10 kts 279°
2026-05-03 21:01 -18.79874 47.47921 4169 ft 10 kts 279°
2026-05-03 21:01 -18.79863 47.47852 4171 ft 10 kts 279°
2026-05-03 21:01 -18.79849 47.47782 4173 ft 10 kts 289°
2026-05-03 21:02 -18.79834 47.47714 4175 ft 9 kts 279°
2026-05-03 21:02 -18.79829 47.47682 4173 ft 4 kts 279°
2026-05-03 21:02 -18.79828 47.47675 4172 ft 0 kts 279°
2026-05-03 21:02 -18.79828 47.47674 4172 ft 1 kts 279°
2026-05-03 21:03 -18.79826 47.47662 4173 ft 4 kts 277°
2026-05-03 21:03 -18.79802 47.47610 4176 ft 9 kts 318°
2026-05-03 21:03 -18.79742 47.47597 4178 ft 9 kts
2026-05-03 21:03 -18.79682 47.47613 4176 ft 9 kts 35°
2026-05-03 21:04 -18.79665 47.47676 4177 ft 10 kts 93°
2026-05-03 21:04 -18.79671 47.47725 4173 ft 10 kts 98°
2026-05-03 21:04 -18.79683 47.47804 4170 ft 11 kts 98°
2026-05-03 21:04 -18.79695 47.47889 4172 ft 12 kts 98°
2026-05-03 21:05 -18.79710 47.48002 4170 ft 12 kts 98°
2026-05-03 21:05 -18.79718 47.48058 4168 ft 9 kts 98°
2026-05-03 21:05 -18.79772 47.48110 4166 ft 9 kts 169°
2026-05-03 21:05 -18.79812 47.48109 4165 ft 9 kts 186°
2026-05-03 21:06 -18.79873 47.48109 4164 ft 9 kts 175°
2026-05-03 21:06 -18.79900 47.48112 4164 ft 2 kts 174°
2026-05-03 21:06 -18.79931 47.48115 4163 ft 5 kts 174°
2026-05-03 21:06 -18.79966 47.48116 4163 ft 5 kts 187°
2026-05-03 21:07 -18.79999 47.48109 4163 ft 4 kts 188°
2026-05-03 21:07 -18.80002 47.48109 4163 ft 0 kts 188°